| time (UTC) | temp C | wind direction | speed KPH | gust KPH | rain 1hr cm | rain 24hr cm | rain mn cm | humidity % | barometer mb |
| 20260503051004 | 14 | 6 | 0.0 | 0.0 | 0.00 | 0.00 | 0.00 | 63 | 1014.8 |
| 20260503050005 | 15 | 6 | 0.0 | 0.0 | 0.00 | 0.00 | 0.00 | 62 | 1014.6 |
| 20260503045004 | 15 | 2 | 0.0 | 0.0 | 0.00 | 0.00 | 0.00 | 61 | 1014.6 |
| 20260503044004 | 15 | 1 | 0.0 | 0.0 | 0.00 | 0.00 | 0.00 | 59 | 1014.4 |
| 20260503043004 | 16 | 2 | 0.0 | 0.0 | 0.00 | 0.00 | 0.00 | 58 | 1014.3 |
| 20260503041005 | 16 | 354 | 0.0 | 1.6 | 0.00 | 0.00 | 0.00 | 55 | 1014.0 |
| 20260503040005 | 16 | 359 | 0.0 | 3.2 | 0.00 | 0.00 | 0.00 | 56 | 1013.8 |
| 20260503035004 | 17 | 357 | 3.2 | 4.8 | 0.00 | 0.00 | 0.00 | 55 | 1013.6 |
| 20260503034007 | 17 | 57 | 0.0 | 1.6 | 0.00 | 0.00 | 0.00 | 55 | 1013.5 |
| 20260503033004 | 17 | 15 | 0.0 | 9.7 | 0.00 | 0.00 | 0.00 | 53 | 1013.3 |
| 20260503032004 | 17 | 5 | 3.2 | 4.8 | 0.00 | 0.00 | 0.00 | 53 | 1013.1 |
| 20260503031004 | 18 | 24 | 1.6 | 4.8 | 0.00 | 0.00 | 0.00 | 52 | 1013.0 |
| 20260503025004 | 19 | 39 | 1.6 | 4.8 | 0.00 | 0.00 | 0.00 | 53 | 1012.8 |
| 20260503023004 | 20 | 359 | 1.6 | 3.2 | 0.00 | 0.00 | 0.00 | 52 | 1012.7 |
| 20260503021004 | 21 | 288 | 0.0 | 1.6 | 0.00 | 0.00 | 0.00 | 49 | 1012.5 |
| 20260503020013 | 22 | 287 | 0.0 | 0.0 | 0.00 | 0.00 | 0.00 | 49 | 1012.4 |
| 20260503015004 | 22 | 287 | 1.6 | 3.2 | 0.00 | 0.00 | 0.00 | 47 | 1012.3 |
| 20260503014004 | 23 | 286 | 0.0 | 0.0 | 0.00 | 0.00 | 0.00 | 44 | 1012.3 |
| 20260503013004 | 23 | 286 | 0.0 | 1.6 | 0.00 | 0.00 | 0.00 | 37 | 1012.3 |
| 20260503012004 | 23 | 286 | 1.6 | 1.6 | 0.00 | 0.00 | 0.00 | 37 | 1012.4 |
| 20260503011004 | 24 | 286 | 0.0 | 0.0 | 0.00 | 0.00 | 0.00 | 36 | 1012.4 |
| 20260503010004 | 24 | 286 | 0.0 | 0.0 | 0.00 | 0.00 | 0.00 | 40 | 1012.4 |
| 20260503005004 | 25 | 286 | 0.0 | 1.6 | 0.00 | 0.00 | 0.00 | 37 | 1012.4 |
| 20260503003004 | 25 | 286 | 0.0 | 0.0 | 0.00 | 0.00 | 0.00 | 32 | 1012.5 |
| 20260503002004 | 25 | 286 | 0.0 | 0.0 | 0.00 | 0.00 | 0.00 | 30 | 1012.4 |
| 20260503001004 | 27 | 287 | 1.6 | 4.8 | 0.00 | 0.00 | 0.00 | 28 | 1012.5 |
| 20260503000004 | 28 | 204 | 4.8 | 12.9 | 0.00 | 0.00 | 0.00 | 26 | 1012.6 |
| 20260502235004 | 27 | 71 | 0.0 | 3.2 | 0.00 | 0.00 | 0.00 | 23 | 1012.6 |
| 20260502234004 | 27 | 187 | 3.2 | 9.7 | 0.00 | 0.00 | 0.00 | 26 | 1012.7 |
| 20260502233004 | 27 | 198 | 3.2 | 11.3 | 0.00 | 0.00 | 0.00 | 23 | 1012.8 |
| 20260502232005 | 27 | 273 | 3.2 | 11.3 | 0.00 | 0.00 | 0.00 | 23 | 1012.9 |
| 20260502231005 | 27 | 224 | 4.8 | 11.3 | 0.00 | 0.00 | 0.00 | 23 | 1012.9 |
| 20260502230005 | 27 | 233 | 4.8 | 4.8 | 0.00 | 0.00 | 0.00 | 20 | 1013.0 |
| 20260502225005 | 26 | 266 | 4.8 | 9.7 | 0.00 | 0.00 | 0.00 | 20 | 1013.2 |
| 20260502224005 | 27 | 183 | 4.8 | 11.3 | 0.00 | 0.00 | 0.00 | 24 | 1013.2 |
| 20260502223006 | 27 | 180 | 4.8 | 9.7 | 0.00 | 0.00 | 0.00 | 26 | 1013.4 |
| 20260502222005 | 27 | 159 | 4.8 | 9.7 | 0.00 | 0.00 | 0.00 | 22 | 1013.5 |
| 20260502221006 | 27 | 106 | 9.7 | 12.9 | 0.00 | 0.00 | 0.00 | 22 | 1013.6 |
| 20260502214005 | 27 | 191 | 3.2 | 9.7 | 0.00 | 0.00 | 0.00 | 27 | 1014.0 |
| 20260502213004 | 26 | 322 | 6.4 | 11.3 | 0.00 | 0.00 | 0.00 | 22 | 1014.2 |
| 20260502212006 | 26 | 107 | 4.8 | 12.9 | 0.00 | 0.00 | 0.00 | 26 | 1014.2 |
| 20260502211005 | 26 | 207 | 9.7 | 12.9 | 0.00 | 0.00 | 0.00 | 26 | 1014.4 |
| 20260502210005 | 26 | 280 | 1.6 | 12.9 | 0.00 | 0.00 | 0.00 | 31 | 1014.5 |
| 20260502205005 | 25 | 185 | 1.6 | 12.9 | 0.00 | 0.00 | 0.00 | 32 | 1014.6 |
| 20260502204005 | 25 | 289 | 8.0 | 12.9 | 0.00 | 0.00 | 0.00 | 33 | 1014.7 |
| 20260502203005 | 25 | 258 | 3.2 | 9.7 | 0.00 | 0.00 | 0.00 | 33 | 1014.9 |
| 20260502202005 | 24 | 132 | 6.4 | 9.7 | 0.00 | 0.00 | 0.00 | 40 | 1015.0 |
| 20260502201005 | 23 | 220 | 4.8 | 9.7 | 0.00 | 0.00 | 0.00 | 38 | 1015.0 |
| 20260502200005 | 23 | 107 | 4.8 | 9.7 | 0.00 | 0.00 | 0.00 | 42 | 1015.1 |
| 20260502194005 | 23 | 241 | 4.8 | 9.7 | 0.00 | 0.00 | 0.00 | 44 | 1015.3 |
| 20260502193005 | 22 | 114 | 4.8 | 9.7 | 0.00 | 0.00 | 0.00 | 44 | 1015.4 |
| 20260502192006 | 22 | 168 | 1.6 | 9.7 | 0.00 | 0.00 | 0.00 | 46 | 1015.7 |
| 20260502191007 | 22 | 222 | 8.0 | 11.3 | 0.00 | 0.00 | 0.00 | 46 | 1015.8 |
| 20260502190005 | 21 | 186 | 4.8 | 9.7 | 0.00 | 0.00 | 0.00 | 44 | 1015.8 |
| 20260502185005 | 21 | 151 | 3.2 | 4.8 | 0.00 | 0.00 | 0.00 | 45 | 1016.0 |
| 20260502184005 | 21 | 49 | 6.4 | 11.3 | 0.00 | 0.00 | 0.00 | 45 | 1016.1 |
| 20260502183005 | 20 | 7 | 4.8 | 4.8 | 0.00 | 0.00 | 0.00 | 45 | 1016.3 |
| 20260502182005 | 20 | 171 | 4.8 | 9.7 | 0.00 | 0.00 | 0.00 | 46 | 1016.4 |
| 20260502181005 | 20 | 223 | 8.0 | 11.3 | 0.00 | 0.00 | 0.00 | 48 | 1016.6 |
| 20260502164005 | 16 | 192 | 8.0 | 14.5 | 0.00 | 0.00 | 0.00 | 64 | 1017.5 |
| 20260502163005 | 15 | 187 | 8.0 | 11.3 | 0.00 | 0.00 | 0.00 | 67 | 1017.5 |
| 20260502162005 | 15 | 163 | 3.2 | 9.7 | 0.00 | 0.00 | 0.00 | 69 | 1017.6 |
| 20260502161005 | 14 | 141 | 3.2 | 4.8 | 0.00 | 0.00 | 0.00 | 73 | 1017.8 |
| 20260502152005 | 11 | 198 | 4.8 | 4.8 | 0.00 | 0.00 | 0.00 | 79 | 1018.4 |
| 20260502151004 | 11 | 129 | 0.0 | 4.8 | 0.00 | 0.00 | 0.00 | 80 | 1018.5 |
| 20260502123005 | 6 | 359 | 0.0 | 0.0 | 0.00 | 0.00 | 0.00 | 87 | 1018.9 |
| 20260502122005 | 6 | 359 | 0.0 | 0.0 | 0.00 | 0.00 | 0.00 | 87 | 1018.8 |
| 20260502114005 | 7 | 359 | 0.0 | 0.0 | 0.00 | 0.00 | 0.00 | 85 | 1018.6 |
| 20260502113005 | 7 | 359 | 0.0 | 0.0 | 0.00 | 0.00 | 0.00 | 85 | 1018.7 |
| 20260502112005 | 7 | 359 | 0.0 | 0.0 | 0.00 | 0.00 | 0.00 | 85 | 1018.6 |
| 20260502111005 | 7 | 341 | 0.0 | 0.0 | 0.00 | 0.00 | 0.00 | 85 | 1018.6 |
| 20260502110005 | 7 | 359 | 0.0 | 0.0 | 0.00 | 0.00 | 0.00 | 85 | 1018.7 |
| 20260502105005 | 7 | 359 | 0.0 | 0.0 | 0.00 | 0.00 | 0.00 | 84 | 1018.7 |
| 20260502104005 | 7 | 359 | 0.0 | 0.0 | 0.00 | 0.00 | 0.00 | 84 | 1018.6 |
| 20260502103005 | 7 | 359 | 0.0 | 0.0 | 0.00 | 0.00 | 0.00 | 84 | 1018.4 |
| 20260502102004 | 7 | 359 | 0.0 | 0.0 | 0.00 | 0.00 | 0.00 | 83 | 1018.2 |
| 20260502101004 | 7 | 359 | 0.0 | 0.0 | 0.00 | 0.00 | 0.00 | 83 | 1018.2 |
| 20260502091005 | 8 | 359 | 0.0 | 0.0 | 0.00 | 0.00 | 0.00 | 79 | 1018.1 |
| 20260502071004 | 11 | 341 | 0.0 | 0.0 | 0.00 | 0.00 | 0.00 | 69 | 1017.7 |
| 20260502070004 | 11 | 341 | 0.0 | 0.0 | 0.00 | 0.00 | 0.00 | 69 | 1017.6 |
| 20260502065005 | 11 | 341 | 0.0 | 0.0 | 0.00 | 0.00 | 0.00 | 68 | 1017.5 |
| 20260502064005 | 11 | 341 | 0.0 | 0.0 | 0.00 | 0.00 | 0.00 | 66 | 1017.5 |
| 20260502063005 | 11 | 341 | 0.0 | 0.0 | 0.00 | 0.00 | 0.00 | 66 | 1017.4 |
| 20260502062005 | 12 | 19 | 0.0 | 0.0 | 0.00 | 0.00 | 0.00 | 64 | 1017.3 |
| 20260502061005 | 12 | 19 | 0.0 | 0.0 | 0.00 | 0.00 | 0.00 | 65 | 1017.3 |
| 20260502055005 | 12 | 19 | 0.0 | 0.0 | 0.00 | 0.00 | 0.00 | 62 | 1017.1 |
| 20260502054005 | 13 | 359 | 0.0 | 0.0 | 0.00 | 0.00 | 0.00 | 61 | 1017.0 |
| 20260502053005 | 13 | 0 | 0.0 | 0.0 | 0.00 | 0.00 | 0.00 | 61 | 1016.9 |
| 20260502052005 | 13 | 0 | 0.0 | 0.0 | 0.00 | 0.00 | 0.00 | 59 | 1016.9 |